Theta_e
321 330 329 329 329 327 323 320 319 309 312 313 314 320 326 326 324 325 323 314 308 307 309 311 314 316 318 319 321 322 323 323 322 323 323 323 324 324
319 322 329 329 325 325 324 321 321 317 311 313 315 317 319 322 320 323 324 315 307 306 306 308 308 312 313 314 315 317 319 320 320 321 321 322 322 323
318 318 327 328 324 323 323 322 319 317 314 315 316 316 316 317 319 319 321 321 320 305 304 304 305 306 308 309 310 313 314 315 317 318 319 320 321 322
322 323 325 325 324 324 322 321 321 319 317 315 315 315 315 316 318 317 318 321 321 311 304 304 305 305 305 305 305 307 308 309 311 313 315 316 318 320
302 317 322 323 321 320 321 321 322 321 321 319 318 316 318 314 314 313 313 314 314 311 302 301 302 304 303 304 304 305 305 305 305 306 307 309 311 313
295 297 299 303 303 303 306 306 307 311 320 320 320 319 317 315 314 314 314 311 316 309 306 303 302 302 301 302 302 303 304 304 304 303 302 302 304 306
290 293 293 291 291 292 298 297 300 302 304 308 316 319 317 312 315 314 316 314 309 311 307 305 305 305 305 300 304 302 302 302 302 302 302 302 302 303
287 287 288 287 286 288 288 291 293 296 298 301 304 305 311 313 313 313 311 307 311 303 304 306 304 306 307 307 302 301 300 301 300 301 301 300 300 301
284 285 285 285 285 286 287 289 290 291 288 294 296 300 303 306 311 309 311 310 312 303 303 301 291 301 302 298 299 299 299 298 299 299 299 298 298 299
281 282 282 282 283 284 285 286 286 288 289 291 293 297 300 303 304 308 310 306 293 291 297 297 287 291 287 291 295 296 296 296 297 297 298 297 297 297
279 281 281 281 283 284 282 282 282 283 285 286 287 289 289 290 293 301 303 303 302 292 291 295 288 288 286 286 289 293 293 294 294 295 296 296 296 296
277 278 280 280 281 281 280 279 278 279 280 282 285 289 291 294 291 295 302 302 301 288 290 294 286 288 289 286 286 288 289 291 292 293 294 295 295 299
274 274 276 279 280 280 280 279 278 280 280 281 283 285 286 288 290 290 295 301 302 294 294 294 287 286 287 286 284 285 287 288 288 289 292 294 295 297
272 273 275 277 277 278 277 279 279 278 278 278 278 279 280 281 284 286 288 290 292 292 292 295 289 292 290 285 288 283 285 286 286 286 286 291 293 294
272 273 274 274 274 273 276 276 275 275 275 275 275 276 278 280 283 285 287 288 288 287 288 292 291 291 296 295 289 282 282 284 285 285 285 286 288 288
269 268 269 271 269 269 270 271 272 273 273 274 275 276 278 278 279 280 281 284 285 287 286 286 288 288 291 292 290 282 283 284 284 284 285 284 284 286
267 267 266 266 265 266 267 268 269 271 271 272 273 274 276 276 276 278 279 280 282 284 286 285 285 285 285 286 285 285 282 282 283 283 284 281 282 284
264 263 262 263 263 263 264 265 266 267 269 271 271 272 273 274 275 276 277 277 277 281 283 283 283 283 283 283 285 284 283 282 283 283 283 281 280 282
261 260 260 260 261 262 262 263 263 266 268 269 270 271 272 273 274 274 275 275 275 275 279 281 283 284 283 284 280 284 281 281 281 281 282 281 280 280
260 259 259 259 260 260 261 261 262 264 265 267 268 270 271 271 272 273 274 273 273 273 274 275 278 279 280 283 278 279 284 281 281 280 279 280 281 282
260 259 259 259 259 259 260 260 261 262 264 265 266 268 270 270 271 272 274 272 271 273 272 272 276 279 281 281 277 277 280 284 283 280 279 279 278 278
259 259 259 259 259 259 259 259 260 261 262 264 265 267 269 270 270 271 272 272 272 272 271 273 275 276 277 277 275 275 276 279 282 282 281 280 277 273
259 259 258 258 259 259 259 259 260 260 262 263 264 266 267 269 270 271 272 272 272 272 270 270 272 273 273 273 273 274 275 276 277 276 277 281 280 280
Wind_Speed
20 23 16 13 11 11 7 6 8 5 7 4 4 6 7 7 9 8 8 11 16 17 18 19 20 20 21 20 22 23 25 26 26 26 26 26 27 26
16 20 18 12 11 9 9 8 8 7 5 6 6 4 5 6 7 8 11 11 15 17 17 19 19 20 20 19 20 23 24 25 26 25 25 26 26 25
14 19 22 17 11 9 8 7 7 5 6 3 4 5 4 6 4 5 5 7 7 15 17 18 18 19 19 20 21 22 23 24 25 25 26 27 27 27
12 18 19 10 14 13 10 11 8 6 5 9 5 5 7 6 5 5 6 6 7 10 17 18 19 20 20 18 18 19 20 20 21 24 25 27 28 26
12 6 10 10 10 7 7 8 7 6 6 6 7 4 6 3 4 4 4 4 4 7 10 14 16 18 18 20 20 21 21 20 21 21 22 23 24 25
16 19 17 11 9 7 5 5 4 2 5 8 8 6 3 3 3 5 5 3 6 3 5 7 10 14 15 17 17 19 20 21 22 22 22 23 24 23
15 17 16 18 25 16 6 5 4 3 2 3 3 6 5 3 5 3 6 4 4 4 3 3 4 6 8 12 14 17 18 20 21 22 24 24 24 25
14 14 17 14 19 17 14 7 3 4 1 3 1 4 3 2 3 4 3 2 7 4 4 6 5 7 8 8 15 15 18 19 19 21 22 23 25 24
15 12 12 11 15 14 11 6 5 5 4 4 5 5 7 5 3 4 7 6 9 4 4 5 2 7 4 4 12 17 17 19 20 20 19 20 22 24
15 16 16 15 22 18 12 11 9 7 9 8 8 9 9 10 9 9 8 5 2 2 2 5 2 5 1 2 9 9 10 12 15 18 20 21 21 22
17 21 18 17 23 22 12 15 9 9 13 17 15 18 19 19 15 8 10 9 11 4 4 4 4 3 2 3 5 10 11 13 13 15 16 17 19 22
13 14 26 22 26 29 19 19 16 17 16 15 11 10 10 11 14 11 10 12 8 1 6 6 3 3 3 3 4 6 5 11 13 13 16 18 19 10
13 13 14 27 24 24 22 16 14 11 11 10 9 9 10 10 8 8 8 10 11 6 5 7 4 3 2 2 2 3 6 5 4 4 11 16 17 18
14 11 12 22 23 26 19 24 21 11 7 9 10 9 11 10 11 11 10 8 5 5 3 7 4 7 6 3 4 2 4 5 4 2 2 5 13 18
12 18 23 24 24 17 25 24 16 11 10 9 10 9 9 10 13 11 9 7 7 3 3 8 5 5 7 6 3 5 4 5 4 4 2 2 4 5
13 12 14 16 16 13 12 14 11 11 11 11 10 10 9 10 10 10 9 9 8 4 2 4 5 3 4 7 4 3 5 5 5 5 5 1 1 3
8 9 12 12 14 14 12 13 12 12 12 11 11 12 12 12 11 11 9 10 7 8 8 2 4 1 1 3 3 3 4 3 5 5 5 4 2 1
10 11 12 12 12 12 12 12 12 15 13 12 11 11 11 11 13 11 10 10 10 8 8 3 2 1 2 2 4 4 4 4 4 8 5 4 3 2
12 10 10 10 10 11 11 10 11 11 13 11 10 10 10 10 13 11 11 9 9 8 7 6 3 4 6 7 1 8 2 2 7 6 5 2 4 5
10 9 9 9 9 9 10 10 11 11 11 11 11 11 11 10 10 11 11 10 9 7 7 5 5 5 4 5 2 1 2 7 7 6 6 8 9 18
9 9 9 9 9 9 9 9 10 11 11 11 11 12 12 11 11 10 10 11 9 7 8 7 8 12 3 1 2 2 2 4 4 9 10 11 8 6
9 9 9 9 9 9 9 9 10 10 11 11 11 11 11 10 11 12 11 10 9 7 5 7 7 5 4 3 2 3 4 7 12 14 9 6 6 8
8 9 9 8 8 9 9 10 10 10 11 11 11 11 11 12 12 11 11 10 9 8 6 6 6 3 7 6 6 6 10 8 7 9 8 20 23 27
Wind_Direction
265 231 219 216 206 202 192 188 190 185 232 248 227 211 217 208 213 210 211 212 213 208 214 213 207 207 206 207 208 208 211 210 211 220 215 213 214 217
221 258 227 208 204 200 200 189 189 188 208 199 224 216 215 227 210 197 217 207 207 212 214 219 208 206 208 205 204 204 206 210 213 215 211 214 214 215
204 240 220 204 195 192 196 197 195 156 188 207 230 213 220 222 226 211 212 215 225 211 213 219 217 210 205 203 203 205 203 210 212 211 210 212 212 213
215 222 211 189 196 195 190 190 201 197 169 222 219 207 205 216 219 212 211 211 220 215 211 211 217 215 213 209 202 205 205 206 210 212 211 211 215 216
31 268 278 187 195 190 187 183 194 195 189 220 245 197 211 182 204 234 229 227 228 230 208 214 217 220 214 208 204 204 205 204 206 206 207 209 210 210
62 47 31 360 119 102 100 104 79 62 208 210 221 226 199 181 188 221 244 209 245 216 227 214 203 216 215 215 212 209 207 209 211 210 211 204 204 203
57 71 51 31 30 35 80 63 65 90 41 306 248 217 189 176 199 229 240 253 235 210 224 208 198 204 219 213 222 215 214 213 215 213 212 215 215 208
65 67 68 20 21 354 36 51 70 68 0 236 248 279 292 213 177 191 188 232 269 187 180 242 196 220 215 207 206 206 210 213 215 220 218 213 211 210
57 54 63 29 26 4 341 83 68 55 295 276 268 267 282 279 306 231 224 212 242 221 180 256 164 237 222 222 195 200 206 212 213 213 216 218 218 213
48 50 46 29 27 5 338 47 33 26 13 355 317 296 287 286 274 273 288 240 28 305 158 217 166 229 21 243 214 212 221 225 222 220 218 218 218 220
36 33 36 32 24 18 351 22 7 16 1 341 323 287 280 272 268 281 261 257 259 222 201 206 192 219 201 231 214 220 223 226 230 227 225 223 225 223
40 32 27 34 27 24 13 14 11 358 353 333 330 320 303 280 252 244 247 250 241 321 215 193 159 153 301 235 201 203 212 229 228 230 235 227 219 226
39 21 24 26 27 32 30 28 14 351 336 330 339 347 348 345 345 349 316 252 251 239 217 162 160 151 202 231 279 214 206 222 229 235 230 225 215 207
35 26 26 26 32 30 30 24 15 7 351 2 4 355 346 340 331 319 309 292 288 239 255 202 200 183 188 167 227 191 208 215 191 251 242 234 208 205
30 27 25 24 28 28 23 21 15 13 10 11 3 352 335 325 322 325 318 305 300 292 270 214 212 199 218 220 205 196 135 205 204 152 168 275 166 169
11 12 17 22 27 23 16 15 14 11 5 3 356 345 341 346 341 337 330 337 323 310 330 309 279 175 226 233 207 167 178 185 179 180 159 100 115 185
15 28 26 19 15 13 8 8 5 6 6 359 355 350 351 348 347 342 339 335 325 317 315 334 345 345 21 161 201 190 170 160 169 162 148 149 138 113
32 29 20 13 14 6 6 1 3 0 355 352 351 352 347 345 343 342 345 342 336 327 319 294 266 288 18 2 11 164 157 162 163 163 145 148 132 120
38 23 20 11 3 3 2 359 353 349 345 348 349 346 344 345 342 343 344 339 336 328 321 320 298 266 246 243 21 12 179 137 144 158 162 121 135 138
31 19 8 358 360 355 353 355 347 348 349 349 348 347 345 344 342 344 345 340 336 334 332 324 328 326 294 289 174 340 191 151 160 142 123 100 99 107
9 11 6 2 356 351 348 350 348 345 342 344 345 346 346 343 336 338 341 338 336 341 336 330 329 321 300 338 65 53 36 123 149 142 143 122 120 124
4 3 357 355 353 351 349 348 344 347 346 344 341 343 339 340 341 336 338 341 343 329 313 312 337 347 343 352 63 90 107 88 92 90 68 76 149 144
357 353 350 348 352 350 352 348 343 340 343 344 340 336 338 341 341 337 333 334 332 335 336 326 331 31 45 36 50 67 81 91 98 88 75 92 99 104